Regional Weather Roundup
Issued by NWS New Orleans/Baton Rouge, LA

Home | Current Version | Previous Version | Graphics & Text | Print | Product List | Glossary On
Versions: 1 2 3 4 5 6 7 8 9 10 11 12 13 14 15 16 17 18 19 20 21 22 23 24 25 26 27 28 29 30 31 32 33 34 35 36 37 38 39 40 41 42 43 44 45 46 47 48 49 50
026
ASUS44 KLIX 161605
RWRLIX
NEW ORLEANS REGIONAL WEATHER ROUNDUP
NATIONAL WEATHER SERVICE NEW ORLEANS LA
1100 AM CDT WED APR 16 2014

NOTE: "FAIR" INDICATES FEW OR NO CLOUDS BELOW 12,000 FEET WITH NO
      SIGNIFICANT WEATHER AND/OR OBSTRUCTIONS TO VISIBILITY.
      SKY/WX - SKY CONDITION AND SIGNIFICANT WEATHER.
      TMP - AIR TEMPERATURE.     DP    - DEWPOINT TEMPERATURE.
      RH  - RELATIVE HUMIDITY.   PRES  - PRESSURE.
      HI  - HEAT INDEX.          WCI   - WIND CHILL INDEX.

*  THESE STATIONS ARE NOT NWS OR FAA STATIONS AND ARE NOT UNDER
   NWS QUALITY CONTROL.

LAZ038-040-048-061>063-065>067-069-161700-
SOUTHEAST LOUISIANA

CITY           SKY/WX    TMP DP  RH WIND       PRES   REMARKS
N.O. AUDUBON     N/A     58  32  36 MISG        N/A
N.O. INTL ARPT MOSUNNY   57  41  55 NE7G16    30.24S
N.O. LAKEFRONT SUNNY     56  39  53 E13       30.25F
N.O. DOWNTOWN*   N/A     57  36  44 NE10G20   30.25S
SLIDELL        SUNNY     54  30  40 SE8       30.25F
BATON ROUGE    SUNNY     56  31  38 E8G17     30.26F
BOOTHVILLE     PTSUNNY   58  44  60 NE10      30.23S
BELLE CHASSE   MOSUNNY   58  39  49 E12       30.23F
BOGALUSA*        N/A     55  31  39 E6        30.28S
GALLIANO*      PTSUNNY   61  43  51 NE8G16    30.23S
NEW ROADS*       N/A     53  32  43 E7        30.26F
GONZALES*        N/A     56  37  47 E5        30.25S
HAMMOND*       SUNNY     55  28  35 E7        30.27F
HOUMA*         MOSUNNY   59  39  47 NE9       30.23S
PORT FOURCHON* MOSUNNY   59  43  55 E9        30.23S

$$

MSZ070-080>082-161700-
SOUTHERN MISSISSIPPI

CITY           SKY/WX    TMP DP  RH WIND       PRES   REMARKS
MCCOMB         SUNNY     52  30  43 SE8       30.25F
GULFPORT       SUNNY     55  29  36 CALM      30.25S
BILOXI         SUNNY     53  32  43 NE7       30.25R
PASCAGOULA     SUNNY     54  30  40 NE7       30.24S
STENNIS ARPT*  SUNNY     54  30  40 SE5       30.26S

$$

COASTAL OBSERVATIONS
LAKE AND NEARSHORE STATIONS

STATION/POSITION TIME  TEMP    WIND        PRES    WAVE
                       AIR SEA DIR/SP/G            HT/PER
                 (UTC) (F)     (DEG/KT/KT) (MB)    (FT/S)
PASCAGOULA       1600   53      80/  8/ 12 1023.6
WAVELAND YACHT   1600   50 61  130/  7/ 11 1023.7
GRAND ISLE       1600   59 66   90/  8/ 12 1023.7
SOUTHWEST PASS   1600   64 58   80/ 13/ 15 1023.0
NEW CANAL        1600   53 61   70/  9/ 11 1024.5
SHELL BEACH      1600   54 59  100/ 11/ 15 1023.7

OFFSHORE STATIONS

STATION/POSITION TIME  TEMP    WIND        PRES    WAVE
                       AIR SEA DIR/SP/G            HT/PER
                 (UTC) (F)     (DEG/KT/KT) (MB)    (FT/S)

$$




USA.gov is the U.S. government's official web portal to all federal, state and local government web resources and services.